Regional Weather Roundup
Issued by NWS

Home | Current Version | Previous Version | Graphics & Text | Print | Product List | Glossary On
Versions: 1 2 3 4 5 6 7 8 9 10 11 12 13 14 15 16 17 18 19 20 21 22 23 24 25 26 27 28 29 30 31 32 33 34 35 36 37 38 39 40 41 42 43 44 45 46 47 48 49 50
000
ASUS43 KDTX 280801
RWRMI
MICHIGAN HOURLY REGIONAL WEATHER ROUNDUP
NATIONAL WEATHER SERVICE DETROIT/PONTIAC MI
400 AM EDT THU AUG 28 2014

NOTE: "FAIR" INDICATES FEW OR NO CLOUDS BELOW 12,000 FEET WITH NO
SIGNIFICANT WEATHER AND/OR OBSTRUCTION TO VISIBILITY.

MIZ047>049-052>055-059>063-066>070-074>076-081>083-280900-
SOUTHEAST LOWER MICHIGAN

CITY           SKY/WX    TMP DP  RH WIND       PRES   REMARKS
ADRIAN         PTCLDY    61  57  87 E7        30.14R
ALMA           CLEAR     49  48  95 CALM      30.17S
ANN ARBOR      PTCLDY    60  54  80 NE7       30.13R
BAD AXE        CLEAR     47  47 100 CALM      30.15R
CARO           CLEAR     53  51  95 N3        30.15R
DETROIT CITY   MOCLDY    64  55  72 N6        30.13S
DETROIT        MOCLDY    64  56  75 NE6       30.13R
FLINT          MOCLDY    57  52  83 CALM      30.15R
GROSSE ILE     MOCLDY    61  55  82 NE5       30.12R
HILLSDALE      CLEAR     59  59 100 NE3       30.13S
HOWELL         MOCLDY    58  56  92 NE3       30.14S

CITY           SKY/WX    TMP DP  RH WIND       PRES   REMARKS
JACKSON        CLOUDY    58  55  90 NE3       30.14R
LAMBERTVILLE   CLEAR     61  55  82 NE6       30.13R
LANSING        CLOUDY    59  52  77 NE5       30.16R
LAPEER         FAIR      53  52  95 CALM      30.15S FOG
MASON          CLOUDY    58  56  90 NE3       30.14S
MONROE         CLOUDY    61  55  82 NE3       30.11R
MT. CLEMENS    CLOUDY    59  55  85 NW3       30.12S
PONTIAC        MOCLDY    60  53  77 NE5       30.13S
PORT HOPE        N/A     60  49  66 VRB3      30.12S
PORT HURON     PTCLDY    54  54 100 NW6       30.13S
TRI CITIES     CLEAR     54  49  83 N8        30.16S
TROY           PTCLDY    62  55  80 NE3       30.15S
SAGINAW HB     CLEAR     54  54 100 NW6       30.15S
$$
MIZ043>046-050>051-056>058-064>065-071>073-077>080-280900-
SOUTHWEST LOWER MICHIGAN

CITY           SKY/WX    TMP DP  RH WIND       PRES   REMARKS
BATTLE CREEK   CLEAR     58  51  78 NE6       30.15R
BENTON HARBOR  CLEAR     58  54  86 CALM      30.14S
BIG RAPIDS     CLEAR     48  48  99 CALM      30.17S
COLDWATER      CLEAR     60  57  89 NE5       30.14R
FREMONT        FAIR      53  49  87 CALM      30.17S
HOLLAND        CLEAR     59  54  83 NE3       30.16S
GRAND RAPIDS   CLEAR     56  55  97 NE5       30.17R
IONIA          FAIR      54  51  89 N6        30.15S
KALAMAZOO      CLEAR     59  51  75 N5        30.14S
LUDINGTON      CLEAR     49  48  97 CALM      30.18R FOG
MARSHALL       CLEAR     57  52  85 CALM      30.14R
MOUNT PLEASANT CLEAR     48  47  97 CALM      30.16S
MUSKEGON       CLEAR     55  51  86 CALM      30.17R
SOUTH HAVEN    CLEAR     57  55  91 NE3       30.16R
$$
MIZ016>042-280900-
NORTHERN LOWER MICHIGAN

CITY           SKY/WX    TMP DP  RH WIND       PRES   REMARKS
ALPENA         CLEAR     47  44  90 W3        30.16R
BEAVER ISLAND  CLEAR     45  44  96 CALM      30.18S
BELLAIRE       CLEAR     44  43  96 CALM      30.19R
CADILLAC         N/A     41  41  99 CALM      30.18S
CHARLEVOIX     CLEAR     49  48  97 CALM      30.21R
FRANKFORT      CLEAR     48  45  90 CALM      30.18S
GAYLORD        CLEAR     43  41  93 CALM      30.18R
GRAYLING       CLEAR     40  40 100 CALM      30.19S
HARBOR SPRINGS CLEAR     47  43  87 CALM      30.18R
HOUGHTON LAKE  CLEAR     41  41 100 CALM      30.18S FOG
MANISTEE       CLEAR     46  45  93 E6        30.18R
OSCODA         CLEAR     47  45  94 NW3       30.15R
PELLSTON       CLEAR     39  37  92 CALM      30.18S
TRAVERSE CITY  CLEAR     49  46  90 CALM      30.18R
$$
MIZ007>008-015-280900-
EASTERN UPPER MICHIGAN

CITY           SKY/WX    TMP DP  RH WIND       PRES   REMARKS
KINROSS        CLEAR     45  45 100 W3        30.17R
MACKINAC ISLAN CLEAR     49  48  97 N7        30.17R
NEWBERRY       CLEAR     40  38  95 W5        30.18S
S. S. MARIE    CLEAR     53  49  86 NW7       30.16S
$$
MIZ004>006-011>014-085-280900-
CENTRAL UPPER MICHIGAN

CITY           SKY/WX    TMP DP  RH WIND       PRES   REMARKS
MANISTIQUE     CLOUDY    48  46  93 CALM      30.18S
ESCANABA       CLOUDY    52  46  82 CALM      30.18S
MENOMINEE      PTCLDY    61  52  72 SE3       30.16F
SAWYER-GWINN   CLEAR     45  42  89 CALM      30.19R
$$
MIZ001>003-009>011-084-280900-
WESTERN UPPER MICHIGAN

CITY           SKY/WX    TMP DP  RH WIND       PRES   REMARKS
IRON MOUNTAIN  MOCLDY    51  48  89 CALM      30.17F
HOUGHTON       CLOUDY    51  45  79 CALM      30.16S
COPPER HARBOR    N/A     53  43  68 W3        30.16S
$$

ABBREVIATIONS USED IN REMARKS
   TC - TEMPERATURE IN CELSIUS
  WCI - WIND CHILL INDEX
   HX - HEAT INDEX
  VSB - VISIBILITY




USA.gov is the U.S. government's official web portal to all federal, state and local government web resources and services.